Location: Hilton Head Island
(32.2163°N, 80.7526°W)
Time: 06:28:19
(UTC-04:00)

Altair - Pass Details

Date: 19 February 2026
Orbit: 1502 x 1682 km, 47.2° (Epoch: 8 March)

Event Time Altitude Azimuth Distance (km) Brightness Sun altitude
Exits shadow 05:34:48 26° 283° (WNW) 2,630 8.1 -19.0°
Maximum altitude 05:39:36 44° 338° (NNW) 2,017 7.9 -18.0°
Drops below altitude 10° 05:48:29 10° 48° (NE) 3,747 10.2 -16.1°
Sets 05:51:51 0° 55° (NE) 4,757 10.9 -15.4°
